DAL324 KMCO-TNCM

Flight info

Callsign DAL324
Flight time 2h 33m
Altitude 37000
Route DDANY3 JIPOD DCT VENDS Y185 COUKY DCT FIPEK Y355 SLUGO ULUBA1
Aircraft L101/H-SDFGHIRWXY/S

Departure

Time 2026-04-23 18:49
Airport Orlando International Airport (KMCO)

Arrival

Time 2026-04-23 21:22
Airport Princess Juliana International Airport (TNCM)
Time Latitude Longitude Altitude Speed Heading
2026-04-23 18:23 28.42687 -81.31541 106 ft 0 kts 124°
2026-04-23 18:34 28.42692 -81.31549 106 ft 3 kts 124°
2026-04-23 18:35 28.42702 -81.31566 106 ft 3 kts 124°
2026-04-23 18:35 28.42712 -81.31584 106 ft 3 kts 124°
2026-04-23 18:35 28.42722 -81.31601 105 ft 3 kts 124°
2026-04-23 18:35 28.42733 -81.31619 105 ft 3 kts 123°
2026-04-23 18:36 28.42734 -81.31621 105 ft 0 kts 123°
2026-04-23 18:39 28.42733 -81.31619 106 ft 1 kts 123°
2026-04-23 18:40 28.42725 -81.31610 106 ft 0 kts 146°
2026-04-23 18:40 28.42701 -81.31608 105 ft 12 kts 179°
2026-04-23 18:40 28.42584 -81.31606 107 ft 18 kts 179°
2026-04-23 18:40 28.42465 -81.31625 106 ft 16 kts 206°
2026-04-23 18:41 28.42363 -81.31669 108 ft 16 kts 192°
2026-04-23 18:41 28.42269 -81.31631 106 ft 16 kts 118°
2026-04-23 18:41 28.42266 -81.31502 107 ft 18 kts 88°
2026-04-23 18:41 28.42269 -81.31355 106 ft 20 kts 91°
2026-04-23 18:42 28.42258 -81.31191 104 ft 22 kts 96°
2026-04-23 18:42 28.42237 -81.31016 106 ft 21 kts 93°
2026-04-23 18:42 28.42244 -81.30849 104 ft 22 kts 83°
2026-04-23 18:42 28.42257 -81.30715 106 ft 0 kts 83°
2026-04-23 18:43 28.42257 -81.30713 106 ft 1 kts 83°
2026-04-23 18:43 28.42259 -81.30693 106 ft 3 kts 88°
2026-04-23 18:43 28.42260 -81.30653 107 ft 8 kts 88°
2026-04-23 18:44 28.42263 -81.30570 109 ft 13 kts 88°
2026-04-23 18:44 28.42273 -81.30440 105 ft 20 kts 83°
2026-04-23 18:44 28.42276 -81.30266 107 ft 24 kts 89°
2026-04-23 18:44 28.42280 -81.30062 108 ft 27 kts 89°
2026-04-23 18:45 28.42281 -81.29836 108 ft 27 kts 90°
2026-04-23 18:45 28.42329 -81.29698 105 ft 12 kts
2026-04-23 18:45 28.42419 -81.29701 107 ft 15 kts 359°
2026-04-23 18:45 28.42541 -81.29704 106 ft 20 kts
2026-04-23 18:46 28.42702 -81.29702 106 ft 25 kts
2026-04-23 18:46 28.42879 -81.29704 108 ft 25 kts 359°
2026-04-23 18:46 28.43063 -81.29708 107 ft 28 kts
2026-04-23 18:46 28.43263 -81.29709 109 ft 29 kts 358°
2026-04-23 18:47 28.43420 -81.29711 109 ft 0 kts
2026-04-23 18:47 28.43436 -81.29710 109 ft 5 kts
2026-04-23 18:47 28.43508 -81.29709 108 ft 13 kts
2026-04-23 18:47 28.43547 -81.29672 106 ft 3 kts 66°
2026-04-23 18:48 28.43550 -81.29649 107 ft 5 kts 83°
2026-04-23 18:48 28.43541 -81.29595 109 ft 7 kts 126°
2026-04-23 18:48 28.43518 -81.29584 109 ft 0 kts 179°
2026-04-23 18:48 28.43377 -81.29585 110 ft 64 kts 179°
2026-04-23 18:49 28.42617 -81.29573 105 ft 151 kts 179°
2026-04-23 18:49 28.41432 -81.29578 744 ft 182 kts 178°
2026-04-23 18:49 28.40517 -81.29601 1037 ft 220 kts 178°
2026-04-23 18:49 28.38053 -81.29654 1537 ft 300 kts 179°
2026-04-23 18:50 28.37325 -81.29666 1818 ft 314 kts 179°
2026-04-23 18:50 28.34225 -81.29366 2996 ft 363 kts 165°
2026-04-23 18:50 28.31759 -81.28335 3857 ft 395 kts 153°
2026-04-23 18:50 28.29410 -81.26667 4637 ft 381 kts 141°
2026-04-23 18:51 28.27658 -81.24733 5079 ft 328 kts 127°
2026-04-23 18:51 28.26606 -81.22612 5130 ft 295 kts 109°
2026-04-23 18:51 28.26294 -81.20369 4876 ft 280 kts 87°
2026-04-23 18:51 28.26720 -81.18235 4426 ft 276 kts 74°
2026-04-23 18:52 28.27178 -81.16135 3949 ft 272 kts 81°
2026-04-23 18:52 28.27420 -81.14052 3689 ft 262 kts 84°
2026-04-23 18:52 28.27597 -81.12000 3879 ft 263 kts 85°
2026-04-23 18:52 28.27751 -81.09921 4247 ft 267 kts 86°
2026-04-23 18:53 28.27871 -81.07804 4640 ft 270 kts 88°
2026-04-23 18:53 28.27978 -81.05673 5005 ft 272 kts 88°
2026-04-23 18:53 28.28086 -81.03531 5368 ft 273 kts 88°
2026-04-23 18:53 28.28183 -81.01366 5745 ft 277 kts 88°
2026-04-23 18:54 28.28263 -80.99163 6131 ft 280 kts 89°
2026-04-23 18:54 28.28341 -80.96945 6509 ft 282 kts 88°
2026-04-23 18:54 28.28405 -80.94714 6878 ft 285 kts 90°
2026-04-23 18:54 28.28395 -80.92461 7233 ft 287 kts 92°
2026-04-23 18:55 28.28347 -80.90188 7595 ft 289 kts 94°
2026-04-23 18:55 28.28229 -80.87893 7965 ft 292 kts 96°
2026-04-23 18:55 28.27979 -80.85601 8340 ft 294 kts 103°
2026-04-23 18:55 28.27466 -80.83344 8710 ft 296 kts 108°
2026-04-23 18:56 28.27051 -80.81835 8973 ft 298 kts 110°
2026-04-23 18:56 28.26176 -80.78869 9481 ft 302 kts 110°
2026-04-23 18:56 28.25490 -80.76608 9871 ft 304 kts 110°
2026-04-23 18:56 28.24780 -80.74300 10236 ft 307 kts 110°
2026-04-23 18:57 28.24028 -80.72033 10571 ft 308 kts 115°
2026-04-23 18:57 28.23088 -80.69834 10957 ft 311 kts 119°
2026-04-23 18:57 28.22055 -80.67704 11319 ft 314 kts 125°
2026-04-23 18:57 28.20640 -80.65786 11682 ft 313 kts 136°
2026-04-23 18:58 28.19270 -80.63849 12038 ft 318 kts 122°
2026-04-23 18:58 28.18279 -80.61573 12410 ft 326 kts 113°
2026-04-23 18:58 28.17457 -80.59164 12779 ft 330 kts 110°
2026-04-23 18:58 28.16701 -80.56706 13158 ft 332 kts 109°
2026-04-23 18:59 28.15965 -80.54217 13555 ft 334 kts 109°
2026-04-23 18:59 28.15237 -80.51715 13940 ft 335 kts 108°
2026-04-23 18:59 28.14508 -80.49193 14287 ft 337 kts 108°
2026-04-23 18:59 28.13777 -80.46656 14645 ft 339 kts 108°
2026-04-23 19:00 28.13043 -80.44109 14994 ft 342 kts 108°
2026-04-23 19:00 28.12303 -80.41541 15355 ft 344 kts 108°
2026-04-23 19:00 28.11559 -80.38957 15711 ft 347 kts 108°
2026-04-23 19:00 28.10810 -80.36353 16093 ft 349 kts 108°
2026-04-23 19:01 28.10055 -80.33728 16474 ft 352 kts 108°
2026-04-23 19:01 28.09297 -80.31085 16844 ft 354 kts 108°
2026-04-23 19:01 28.08532 -80.28416 17237 ft 357 kts 108°
2026-04-23 19:01 28.07765 -80.25731 17628 ft 359 kts 108°
2026-04-23 19:02 28.07246 -80.23914 17882 ft 361 kts 108°
2026-04-23 19:02 28.06219 -80.20305 18401 ft 365 kts 108°
2026-04-23 19:02 28.05429 -80.17525 18756 ft 368 kts 108°
2026-04-23 19:02 28.04645 -80.14766 19095 ft 370 kts 108°
2026-04-23 19:03 28.03847 -80.11983 19449 ft 372 kts 110°
2026-04-23 19:03 28.02965 -80.09227 19801 ft 374 kts 111°
2026-04-23 19:03 28.02014 -80.06472 20154 ft 377 kts 112°
2026-04-23 19:03 28.01032 -80.03712 20509 ft 379 kts 113°
2026-04-23 19:04 28.00032 -80.00935 20872 ft 382 kts 113°
2026-04-23 19:04 27.99027 -79.98151 21242 ft 385 kts 113°
2026-04-23 19:04 27.98005 -79.95317 21622 ft 387 kts 113°
2026-04-23 19:04 27.96992 -79.92508 22001 ft 390 kts 113°
2026-04-23 19:05 27.95971 -79.89674 22395 ft 393 kts 113°
2026-04-23 19:05 27.94931 -79.86783 22780 ft 395 kts 113°
2026-04-23 19:05 27.93892 -79.83893 23171 ft 398 kts 113°
2026-04-23 19:05 27.92834 -79.80945 23586 ft 401 kts 113°
2026-04-23 19:06 27.91783 -79.78010 23936 ft 404 kts 113°
2026-04-23 19:06 27.90739 -79.75090 24264 ft 407 kts 113°
2026-04-23 19:06 27.89662 -79.72071 24616 ft 410 kts 113°
2026-04-23 19:06 27.88591 -79.69062 24959 ft 413 kts 113°
2026-04-23 19:07 27.87520 -79.66045 25299 ft 416 kts 113°
2026-04-23 19:07 27.86438 -79.62988 25662 ft 419 kts 113°
2026-04-23 19:07 27.85352 -79.59914 26018 ft 423 kts 113°
2026-04-23 19:07 27.84262 -79.56824 26382 ft 426 kts 113°
2026-04-23 19:08 27.83166 -79.53705 26749 ft 429 kts 113°
2026-04-23 19:08 27.82065 -79.50567 27126 ft 432 kts 113°
2026-04-23 19:08 27.80954 -79.47393 27504 ft 435 kts 113°
2026-04-23 19:08 27.79839 -79.44201 27881 ft 439 kts 113°
2026-04-23 19:09 27.78720 -79.40990 28286 ft 442 kts 113°
2026-04-23 19:09 27.77592 -79.37742 28673 ft 446 kts 113°
2026-04-23 19:09 27.76457 -79.34469 29064 ft 449 kts 113°
2026-04-23 19:09 27.75314 -79.31165 29469 ft 453 kts 113°
2026-04-23 19:10 27.74167 -79.27842 29885 ft 456 kts 113°
2026-04-23 19:10 27.73015 -79.24497 30282 ft 460 kts 113°
2026-04-23 19:10 27.71852 -79.21113 30637 ft 463 kts 113°
2026-04-23 19:10 27.70669 -79.17659 30999 ft 467 kts 113°
2026-04-23 19:11 27.69504 -79.14245 31364 ft 470 kts 113°
2026-04-23 19:11 27.68327 -79.10777 31738 ft 473 kts 113°
2026-04-23 19:11 27.67157 -79.07318 32105 ft 476 kts 113°
2026-04-23 19:11 27.65977 -79.03808 32501 ft 479 kts 113°
2026-04-23 19:12 27.65196 -79.01483 32743 ft 481 kts 113°
2026-04-23 19:12 27.63610 -78.96741 33258 ft 486 kts 113°
2026-04-23 19:12 27.62418 -78.93163 33658 ft 489 kts 113°
2026-04-23 19:12 27.61223 -78.89557 34034 ft 492 kts 113°
2026-04-23 19:13 27.60023 -78.85921 34390 ft 495 kts 113°
2026-04-23 19:13 27.58824 -78.82277 34739 ft 498 kts 112°
2026-04-23 19:13 27.57623 -78.78623 35102 ft 500 kts 112°
2026-04-23 19:13 27.56409 -78.74925 35464 ft 502 kts 112°
2026-04-23 19:14 27.55196 -78.71235 35835 ft 503 kts 112°
2026-04-23 19:14 27.53979 -78.67534 36200 ft 505 kts 112°
2026-04-23 19:14 27.52753 -78.63808 36582 ft 508 kts 112°
2026-04-23 19:14 27.51523 -78.60064 36881 ft 512 kts 112°
2026-04-23 19:15 27.50272 -78.56254 37051 ft 514 kts 112°
2026-04-23 19:15 27.47798 -78.48722 37112 ft 515 kts 112°
2026-04-23 19:16 27.45303 -78.41134 37112 ft 515 kts 112°
2026-04-23 19:16 27.42824 -78.33589 37121 ft 515 kts 112°
2026-04-23 19:17 27.39112 -78.22235 37126 ft 515 kts 112°
2026-04-23 19:17 27.36656 -78.14682 37124 ft 515 kts 112°
2026-04-23 19:18 27.34207 -78.07131 37124 ft 515 kts 112°
2026-04-23 19:18 27.31555 -77.99664 37115 ft 511 kts 122°
2026-04-23 19:19 27.28220 -77.94214 37120 ft 502 kts 136°
2026-04-23 19:19 27.25828 -77.91400 37127 ft 499 kts 141°
2026-04-23 19:20 27.17995 -77.83729 37123 ft 498 kts 143°
2026-04-23 19:20 27.13268 -77.77977 37122 ft 506 kts 132°
2026-04-23 19:21 27.07274 -77.68153 37121 ft 510 kts 124°
2026-04-23 19:22 27.03761 -77.61240 37116 ft 512 kts 122°
2026-04-23 19:22 26.98692 -77.50661 37118 ft 514 kts 121°
2026-04-23 19:23 26.95224 -77.43669 37119 ft 513 kts 124°
2026-04-23 19:24 26.89422 -77.33607 37086 ft 509 kts 130°
2026-04-23 19:24 26.83019 -77.24179 37109 ft 506 kts 133°
2026-04-23 19:25 26.74301 -77.11753 37109 ft 507 kts 133°
2026-04-23 19:26 26.67947 -77.02268 37109 ft 509 kts 130°
2026-04-23 19:27 26.58636 -76.85278 37107 ft 514 kts 121°
2026-04-23 19:28 26.52013 -76.71039 37104 ft 518 kts 122°
2026-04-23 19:29 26.46733 -76.60516 37108 ft 518 kts 124°
2026-04-23 19:30 26.41314 -76.50110 37104 ft 517 kts 124°
2026-04-23 19:31 26.35867 -76.39663 37107 ft 520 kts 124°
2026-04-23 19:31 26.32242 -76.32688 37103 ft 520 kts 124°
2026-04-23 19:32 26.28621 -76.25714 37102 ft 520 kts 124°
2026-04-23 19:32 26.24979 -76.18695 37102 ft 520 kts 124°
2026-04-23 19:33 26.21406 -76.11838 37104 ft 520 kts 125°
2026-04-23 19:33 26.15857 -76.01328 37088 ft 524 kts 126°
2026-04-23 19:34 26.12272 -75.94450 37100 ft 526 kts 126°
2026-04-23 19:35 26.06575 -75.83447 37099 ft 526 kts 125°
2026-04-23 19:35 26.02931 -75.76388 37094 ft 527 kts 125°
2026-04-23 19:36 25.99291 -75.69308 37090 ft 528 kts 125°
2026-04-23 19:36 25.95651 -75.62206 37092 ft 529 kts 125°
2026-04-23 19:37 25.92017 -75.55104 37096 ft 529 kts 125°
2026-04-23 19:37 25.88364 -75.47957 37095 ft 529 kts 125°
2026-04-23 19:38 25.84738 -75.40856 37085 ft 529 kts 125°
2026-04-23 19:38 25.81138 -75.33769 37064 ft 530 kts 126°
2026-04-23 19:39 25.77543 -75.26615 37080 ft 532 kts 125°
2026-04-23 19:39 25.73955 -75.19411 37085 ft 533 kts 125°
2026-04-23 19:40 25.70960 -75.13379 37087 ft 533 kts 125°
2026-04-23 19:40 25.67262 -75.06270 37089 ft 530 kts 129°
2026-04-23 19:41 25.63251 -74.99447 37088 ft 529 kts 131°
2026-04-23 19:41 25.59097 -74.92656 37082 ft 528 kts 131°
2026-04-23 19:42 25.54944 -74.85947 37083 ft 528 kts 132°
2026-04-23 19:42 25.50783 -74.79248 37079 ft 528 kts 132°
2026-04-23 19:43 25.46620 -74.72549 37089 ft 528 kts 132°
2026-04-23 19:43 25.42461 -74.65845 37077 ft 528 kts 132°
2026-04-23 19:44 25.38294 -74.59079 37083 ft 529 kts 131°
2026-04-23 19:44 25.34189 -74.52393 37086 ft 529 kts 131°
2026-04-23 19:45 25.30034 -74.45616 37084 ft 529 kts 131°
2026-04-23 19:45 25.25911 -74.38882 37083 ft 529 kts 131°
2026-04-23 19:46 25.21792 -74.32144 37078 ft 529 kts 131°
2026-04-23 19:46 25.17684 -74.25398 37083 ft 530 kts 131°
2026-04-23 19:47 25.13583 -74.18652 37084 ft 530 kts 131°
2026-04-23 19:47 25.09477 -74.11892 37083 ft 530 kts 131°
2026-04-23 19:48 25.05356 -74.05081 37063 ft 529 kts 131°
2026-04-23 19:48 25.01298 -73.98307 37078 ft 530 kts 131°
2026-04-23 19:49 24.97269 -73.91535 37079 ft 530 kts 131°
2026-04-23 19:49 24.93227 -73.84721 37078 ft 530 kts 131°
2026-04-23 19:50 24.89197 -73.77916 37080 ft 530 kts 131°
2026-04-23 19:50 24.85166 -73.71105 37072 ft 530 kts 131°
2026-04-23 19:51 24.81149 -73.64310 37065 ft 530 kts 131°
2026-04-23 19:51 24.77137 -73.57500 37074 ft 530 kts 131°
2026-04-23 19:52 24.73139 -73.50695 37073 ft 530 kts 131°
2026-04-23 19:52 24.69141 -73.43879 37049 ft 530 kts 131°
2026-04-23 19:53 24.65152 -73.37071 37074 ft 529 kts 131°
2026-04-23 19:53 24.61169 -73.30265 37073 ft 529 kts 131°
2026-04-23 19:54 24.57163 -73.23409 37069 ft 530 kts 131°
2026-04-23 19:54 24.53186 -73.16588 37068 ft 530 kts 131°
2026-04-23 19:55 24.49215 -73.09769 37069 ft 530 kts 131°
2026-04-23 19:55 24.45246 -73.02945 37069 ft 530 kts 131°
2026-04-23 19:56 24.41282 -72.96125 37068 ft 530 kts 131°
2026-04-23 19:56 24.37322 -72.89307 37058 ft 530 kts 131°
2026-04-23 19:57 24.33357 -72.82477 37043 ft 531 kts 131°
2026-04-23 19:57 24.29271 -72.75773 37056 ft 526 kts 134°
2026-04-23 19:58 24.24918 -72.69271 37057 ft 525 kts 136°
2026-04-23 19:58 24.20565 -72.62865 37062 ft 524 kts 136°
2026-04-23 19:59 24.16203 -72.56458 37054 ft 525 kts 136°
2026-04-23 19:59 24.11840 -72.50044 37059 ft 525 kts 136°
2026-04-23 20:00 24.07509 -72.43670 37060 ft 525 kts 136°
2026-04-23 20:00 24.03131 -72.37219 37058 ft 525 kts 136°
2026-04-23 20:01 23.98798 -72.30828 37059 ft 525 kts 136°
2026-04-23 20:01 23.94452 -72.24379 37020 ft 527 kts 133°
2026-04-23 20:02 23.90240 -72.17857 37049 ft 520 kts 139°
2026-04-23 20:02 23.85468 -72.11997 37051 ft 513 kts 143°
2026-04-23 20:03 23.80502 -72.06423 37053 ft 511 kts 145°
2026-04-23 20:03 23.75442 -72.00900 37053 ft 511 kts 145°
2026-04-23 20:04 23.70420 -71.95463 37055 ft 510 kts 146°
2026-04-23 20:04 23.65352 -71.89992 37047 ft 510 kts 146°
2026-04-23 20:05 23.61120 -71.85425 37049 ft 511 kts 146°
2026-04-23 20:05 23.55248 -71.79088 37046 ft 511 kts 146°
2026-04-23 20:06 23.50193 -71.73632 37048 ft 511 kts 146°
2026-04-23 20:06 23.45145 -71.68181 37047 ft 511 kts 145°
2026-04-23 20:07 23.40098 -71.62728 37049 ft 511 kts 145°
2026-04-23 20:07 23.35863 -71.58152 37043 ft 511 kts 145°
2026-04-23 20:08 23.30817 -71.52701 37038 ft 511 kts 145°
2026-04-23 20:08 23.25774 -71.47252 37004 ft 511 kts 145°
2026-04-23 20:09 23.20724 -71.41806 37032 ft 510 kts 145°
2026-04-23 20:09 23.15681 -71.36379 37034 ft 510 kts 145°
2026-04-23 20:10 23.10654 -71.30935 37031 ft 513 kts 143°
2026-04-23 20:10 23.06012 -71.24933 37031 ft 522 kts 135°
2026-04-23 20:11 23.01800 -71.18430 37034 ft 527 kts 132°
2026-04-23 20:11 22.97721 -71.11737 37052 ft 528 kts 131°
2026-04-23 20:12 22.93750 -71.05093 37030 ft 528 kts 131°
2026-04-23 20:12 22.89748 -70.98348 37032 ft 529 kts 131°
2026-04-23 20:13 22.85778 -70.91656 37032 ft 526 kts 131°
2026-04-23 20:13 22.81833 -70.84954 37031 ft 527 kts 130°
2026-04-23 20:14 22.77990 -70.78196 37033 ft 527 kts 129°
2026-04-23 20:14 22.74181 -70.71409 37035 ft 528 kts 129°
2026-04-23 20:15 22.70355 -70.64557 37032 ft 528 kts 129°
2026-04-23 20:15 22.66577 -70.57774 37030 ft 528 kts 129°
2026-04-23 20:16 22.62781 -70.50957 37020 ft 528 kts 129°
2026-04-23 20:16 22.58955 -70.44103 37025 ft 528 kts 129°
2026-04-23 20:17 22.55167 -70.37321 37032 ft 528 kts 129°
2026-04-23 20:17 22.51367 -70.30517 37030 ft 528 kts 129°
2026-04-23 20:18 22.47574 -70.23729 37010 ft 526 kts 129°
2026-04-23 20:18 22.43757 -70.16925 37017 ft 525 kts 129°
2026-04-23 20:19 22.39968 -70.10197 37024 ft 525 kts 129°
2026-04-23 20:19 22.36171 -70.03463 37025 ft 524 kts 129°
2026-04-23 20:20 22.32374 -69.96730 37020 ft 524 kts 129°
2026-04-23 20:20 22.28580 -69.89998 37023 ft 525 kts 129°
2026-04-23 20:21 22.24791 -69.83272 37017 ft 524 kts 128°
2026-04-23 20:21 22.20988 -69.76541 37026 ft 524 kts 129°
2026-04-23 20:22 22.17080 -69.69856 37016 ft 522 kts 130°
2026-04-23 20:22 22.13078 -69.63330 37023 ft 522 kts 131°
2026-04-23 20:23 22.09038 -69.56839 37009 ft 520 kts 131°
2026-04-23 20:23 22.04991 -69.50391 37020 ft 519 kts 131°
2026-04-23 20:24 22.00924 -69.43941 37017 ft 519 kts 131°
2026-04-23 20:24 21.96875 -69.37530 37015 ft 519 kts 131°
2026-04-23 20:25 21.92793 -69.31066 37018 ft 519 kts 131°
2026-04-23 20:25 21.88719 -69.24618 37017 ft 519 kts 131°
2026-04-23 20:26 21.84658 -69.18198 37004 ft 519 kts 131°
2026-04-23 20:26 21.80598 -69.11782 37009 ft 519 kts 131°
2026-04-23 20:27 21.76539 -69.05370 37012 ft 519 kts 131°
2026-04-23 20:27 21.72473 -68.98941 37010 ft 519 kts 131°
2026-04-23 20:28 21.68390 -68.92485 37002 ft 518 kts 132°
2026-04-23 20:28 21.64210 -68.86184 37012 ft 516 kts 134°
2026-04-23 20:29 21.59934 -68.79994 37007 ft 516 kts 134°
2026-04-23 20:29 21.55616 -68.73838 37003 ft 515 kts 135°
2026-04-23 20:30 21.51299 -68.67703 37004 ft 516 kts 134°
2026-04-23 20:30 21.44828 -68.58477 37007 ft 516 kts 134°
2026-04-23 20:31 21.40517 -68.52319 36995 ft 516 kts 134°
2026-04-23 20:31 21.36201 -68.46154 36995 ft 516 kts 134°
2026-04-23 20:32 21.31890 -68.39996 36984 ft 516 kts 134°
2026-04-23 20:32 21.27578 -68.33859 36999 ft 515 kts 134°
2026-04-23 20:33 21.23258 -68.27714 37003 ft 516 kts 134°
2026-04-23 20:33 21.19646 -68.22574 37002 ft 516 kts 134°
2026-04-23 20:34 21.15311 -68.16462 36997 ft 515 kts 135°
2026-04-23 20:34 21.10966 -68.10356 37001 ft 515 kts 135°
2026-04-23 20:35 21.06489 -68.04402 36999 ft 510 kts 140°
2026-04-23 20:35 21.01623 -67.98919 36998 ft 506 kts 143°
2026-04-23 20:36 20.96627 -67.93621 36997 ft 505 kts 143°
2026-04-23 20:36 20.91595 -67.88390 36994 ft 504 kts 144°
2026-04-23 20:37 20.86548 -67.83198 37004 ft 504 kts 144°
2026-04-23 20:37 20.81499 -67.78020 36990 ft 503 kts 144°
2026-04-23 20:38 20.76441 -67.72838 37000 ft 504 kts 144°
2026-04-23 20:38 20.71444 -67.67490 36988 ft 508 kts 139°
2026-04-23 20:39 20.66873 -67.61699 36993 ft 513 kts 135°
2026-04-23 20:39 20.62624 -67.55550 36987 ft 516 kts 131°
2026-04-23 20:40 20.58538 -67.49247 36969 ft 517 kts 130°
2026-04-23 20:40 20.54437 -67.42964 36985 ft 514 kts 132°
2026-04-23 20:41 20.50263 -67.36772 36991 ft 514 kts 132°
2026-04-23 20:41 20.46065 -67.30620 36995 ft 513 kts 133°
2026-04-23 20:42 20.41861 -67.24480 36993 ft 513 kts 133°
2026-04-23 20:42 20.37641 -67.18322 36994 ft 514 kts 133°
2026-04-23 20:43 20.33395 -67.12131 36989 ft 514 kts 133°
2026-04-23 20:43 20.29173 -67.05974 36987 ft 514 kts 133°
2026-04-23 20:44 20.24965 -66.99820 36987 ft 515 kts 131°
2026-04-23 20:44 20.20935 -66.93512 36988 ft 517 kts 129°
2026-04-23 20:45 20.17034 -66.87088 36985 ft 516 kts 129°
2026-04-23 20:45 20.13203 -66.80625 36983 ft 517 kts 127°
2026-04-23 20:46 20.09618 -66.73961 36988 ft 520 kts 124°
2026-04-23 20:46 20.06188 -66.67181 36990 ft 520 kts 123°
2026-04-23 20:47 20.02809 -66.60376 36988 ft 521 kts 123°
2026-04-23 20:47 19.99446 -66.53549 36989 ft 521 kts 123°
2026-04-23 20:48 19.96084 -66.46734 36989 ft 522 kts 123°
2026-04-23 20:48 19.92712 -66.39902 36990 ft 522 kts 123°
2026-04-23 20:49 19.89340 -66.33071 36988 ft 522 kts 123°
2026-04-23 20:49 19.85951 -66.26202 36984 ft 521 kts 123°
2026-04-23 20:50 19.82582 -66.19377 36980 ft 522 kts 123°
2026-04-23 20:50 19.79209 -66.12549 36977 ft 522 kts 123°
2026-04-23 20:51 19.75838 -66.05724 36977 ft 522 kts 123°
2026-04-23 20:51 19.72469 -65.98902 36976 ft 522 kts 123°
2026-04-23 20:52 19.69100 -65.92079 36973 ft 522 kts 123°
2026-04-23 20:52 19.65727 -65.85255 36976 ft 522 kts 123°
2026-04-23 20:53 19.62358 -65.78439 36978 ft 522 kts 123°
2026-04-23 20:53 19.58994 -65.71628 36978 ft 522 kts 123°
2026-04-23 20:54 19.55604 -65.64762 36980 ft 522 kts 123°
2026-04-23 20:54 19.52240 -65.57948 36975 ft 522 kts 123°
2026-04-23 20:55 19.48877 -65.51137 36978 ft 522 kts 123°
2026-04-23 20:55 19.45490 -65.44269 36979 ft 522 kts 123°
2026-04-23 20:56 19.42133 -65.37460 36979 ft 522 kts 123°
2026-04-23 20:56 19.38770 -65.30639 36649 ft 524 kts 123°
2026-04-23 20:57 19.37084 -65.27222 36279 ft 520 kts 123°
2026-04-23 20:57 19.35416 -65.23847 35917 ft 517 kts 123°
2026-04-23 20:57 19.33746 -65.20473 35533 ft 514 kts 123°
2026-04-23 20:57 19.32091 -65.17132 35175 ft 510 kts 123°
2026-04-23 20:58 19.30447 -65.13822 34824 ft 507 kts 123°
2026-04-23 20:58 19.28811 -65.10533 34479 ft 504 kts 123°
2026-04-23 20:58 19.27181 -65.07261 34138 ft 501 kts 123°
2026-04-23 20:58 19.25539 -65.03970 33766 ft 498 kts 123°
2026-04-23 20:59 19.23944 -65.00781 33385 ft 495 kts 123°
2026-04-23 20:59 19.22335 -64.97574 32995 ft 492 kts 123°
2026-04-23 20:59 19.20713 -64.94350 32615 ft 489 kts 123°
2026-04-23 20:59 19.19118 -64.91192 32246 ft 485 kts 123°
2026-04-23 21:00 19.17529 -64.88055 31877 ft 482 kts 123°
2026-04-23 21:00 19.15950 -64.84949 31521 ft 479 kts 123°
2026-04-23 21:00 19.14373 -64.81857 31171 ft 476 kts 123°
2026-04-23 21:00 19.12799 -64.78783 30809 ft 473 kts 123°
2026-04-23 21:01 19.11230 -64.75730 30465 ft 470 kts 122°
2026-04-23 21:01 19.09647 -64.72725 30126 ft 467 kts 124°
2026-04-23 21:01 19.07986 -64.69803 29730 ft 463 kts 126°
2026-04-23 21:01 19.06270 -64.66939 29328 ft 459 kts 127°
2026-04-23 21:02 19.05096 -64.65028 29055 ft 456 kts 127°
2026-04-23 21:02 19.02793 -64.61341 28520 ft 451 kts 128°
2026-04-23 21:02 19.01061 -64.58599 28145 ft 447 kts 128°
2026-04-23 21:02 18.99890 -64.56760 27899 ft 445 kts 128°
2026-04-23 21:03 18.97602 -64.53196 27403 ft 440 kts 128°
2026-04-23 21:03 18.95887 -64.50529 27035 ft 437 kts 128°
2026-04-23 21:03 18.94740 -64.48745 26790 ft 435 kts 128°
2026-04-23 21:03 18.93045 -64.46108 26423 ft 431 kts 128°
2026-04-23 21:04 18.91367 -64.43500 26063 ft 429 kts 128°
2026-04-23 21:04 18.89700 -64.40908 25716 ft 426 kts 128°
2026-04-23 21:04 18.88039 -64.38323 25362 ft 424 kts 128°
2026-04-23 21:04 18.86383 -64.35746 25018 ft 421 kts 128°
2026-04-23 21:05 18.84713 -64.33152 24682 ft 429 kts 128°
2026-04-23 21:05 18.83008 -64.30522 24358 ft 438 kts 128°
2026-04-23 21:05 18.81275 -64.27860 24026 ft 439 kts 128°
2026-04-23 21:05 18.79550 -64.25214 23705 ft 438 kts 128°
2026-04-23 21:06 18.77822 -64.22565 23356 ft 436 kts 128°
2026-04-23 21:06 18.76107 -64.19942 22973 ft 433 kts 128°
2026-04-23 21:06 18.74404 -64.17347 22573 ft 430 kts 128°
2026-04-23 21:06 18.72705 -64.14767 22194 ft 426 kts 128°
2026-04-23 21:07 18.71013 -64.12209 21816 ft 423 kts 128°
2026-04-23 21:07 18.69342 -64.09687 21432 ft 419 kts 128°
2026-04-23 21:07 18.67672 -64.07169 21073 ft 416 kts 128°
2026-04-23 21:07 18.65997 -64.04650 20708 ft 412 kts 128°
2026-04-23 21:08 18.64356 -64.02188 20363 ft 410 kts 128°
2026-04-23 21:08 18.62747 -63.99779 20007 ft 407 kts 128°
2026-04-23 21:08 18.61099 -63.97318 19658 ft 404 kts 127°
2026-04-23 21:08 18.59480 -63.94908 19312 ft 401 kts 127°
2026-04-23 21:09 18.57873 -63.92522 18967 ft 397 kts 127°
2026-04-23 21:09 18.56275 -63.90158 18636 ft 394 kts 127°
2026-04-23 21:09 18.54662 -63.87782 18307 ft 391 kts 127°
2026-04-23 21:09 18.53087 -63.85470 17916 ft 389 kts 127°
2026-04-23 21:10 18.51513 -63.83166 17528 ft 387 kts 128°
2026-04-23 21:10 18.49941 -63.80866 17148 ft 385 kts 128°
2026-04-23 21:10 18.48385 -63.78586 16775 ft 383 kts 127°
2026-04-23 21:10 18.46834 -63.76315 16401 ft 380 kts 127°
2026-04-23 21:11 18.45292 -63.74059 16038 ft 378 kts 127°
2026-04-23 21:11 18.43758 -63.71821 15670 ft 376 kts 128°
2026-04-23 21:11 18.42143 -63.69670 15316 ft 372 kts 133°
2026-04-23 21:11 18.40412 -63.67662 14968 ft 369 kts 135°
2026-04-23 21:12 18.38621 -63.65739 14576 ft 367 kts 137°
2026-04-23 21:12 18.36781 -63.63830 14098 ft 364 kts 137°
2026-04-23 21:12 18.34999 -63.62006 13658 ft 361 kts 138°
2026-04-23 21:12 18.33170 -63.60154 13135 ft 358 kts 138°
2026-04-23 21:13 18.31382 -63.58357 12629 ft 354 kts 138°
2026-04-23 21:13 18.29624 -63.56604 12033 ft 351 kts 138°
2026-04-23 21:13 18.27841 -63.54832 11440 ft 346 kts 137°
2026-04-23 21:13 18.26096 -63.53103 10845 ft 342 kts 137°
2026-04-23 21:14 18.24378 -63.51410 10258 ft 333 kts 137°
2026-04-23 21:14 18.22707 -63.49777 9660 ft 324 kts 137°
2026-04-23 21:14 18.21119 -63.48236 9163 ft 298 kts 137°
2026-04-23 21:14 18.19637 -63.46805 8527 ft 281 kts 137°
2026-04-23 21:15 18.18227 -63.45448 7904 ft 268 kts 137°
2026-04-23 21:15 18.16886 -63.44159 7378 ft 255 kts 137°
2026-04-23 21:15 18.15599 -63.42923 6802 ft 246 kts 137°
2026-04-23 21:15 18.14345 -63.41732 6216 ft 240 kts 137°
2026-04-23 21:16 18.13115 -63.40578 5613 ft 235 kts 137°
2026-04-23 21:16 18.11890 -63.39428 5066 ft 229 kts 137°
2026-04-23 21:16 18.10722 -63.38336 4521 ft 222 kts 137°
2026-04-23 21:16 18.09560 -63.37261 3999 ft 221 kts 138°
2026-04-23 21:17 18.08423 -63.36212 3460 ft 215 kts 138°
2026-04-23 21:17 18.07304 -63.35185 2942 ft 212 kts 137°
2026-04-23 21:17 18.06207 -63.34186 2712 ft 210 kts 137°
2026-04-23 21:17 18.05096 -63.33184 2619 ft 211 kts 137°
2026-04-23 21:18 18.03977 -63.32177 2592 ft 209 kts 137°
2026-04-23 21:18 18.02965 -63.31181 2559 ft 193 kts 126°
2026-04-23 21:18 18.02481 -63.29924 2523 ft 185 kts 97°
2026-04-23 21:18 18.02383 -63.28646 2547 ft 169 kts 92°
2026-04-23 21:19 18.02279 -63.27427 2489 ft 166 kts 94°
2026-04-23 21:19 18.02154 -63.26233 2353 ft 164 kts 95°
2026-04-23 21:19 18.02094 -63.25028 2225 ft 163 kts 87°
2026-04-23 21:19 18.02202 -63.23862 2108 ft 162 kts 81°
2026-04-23 21:20 18.02363 -63.22693 1982 ft 161 kts 79°
2026-04-23 21:20 18.02531 -63.21514 1843 ft 161 kts 80°
2026-04-23 21:20 18.02687 -63.20353 1735 ft 160 kts 81°
2026-04-23 21:20 18.02841 -63.19199 1545 ft 158 kts 79°
2026-04-23 21:21 18.03020 -63.18060 1344 ft 157 kts 79°
2026-04-23 21:21 18.03178 -63.16929 1112 ft 156 kts 79°
2026-04-23 21:21 18.03319 -63.15796 927 ft 157 kts 81°
2026-04-23 21:21 18.03539 -63.14684 767 ft 154 kts 74°
2026-04-23 21:22 18.03711 -63.13531 502 ft 165 kts 80°
2026-04-23 21:22 18.03892 -63.12308 123 ft 160 kts 81°
2026-04-23 21:22 18.04031 -63.11342 29 ft 87 kts 81°
2026-04-23 21:22 18.04070 -63.11062 27 ft 14 kts 83°
2026-04-23 21:23 18.04083 -63.11010 27 ft 1 kts 104°
2026-04-23 21:23 18.04065 -63.11039 25 ft 12 kts 262°
2026-04-23 21:23 18.04057 -63.11139 27 ft 16 kts 266°
2026-04-23 21:23 18.04060 -63.11256 31 ft 16 kts 302°
2026-04-23 21:24 18.04132 -63.11296 30 ft 11 kts 354°
2026-04-23 21:24 18.04144 -63.11298 28 ft 2 kts 353°
2026-04-23 21:24 18.04217 -63.11308 27 ft 16 kts 351°
2026-04-23 21:24 18.04314 -63.11289 27 ft 11 kts 348°
2026-04-23 21:25 18.04330 -63.11293 27 ft 0 kts 349°